Find Starlink 2621

NORAD ID: 48370 Int'l Des: 2021-038 Owner: SPXS Country: US Constellation: starlink operational
LEOCIRCULAR

リアルタイム位置

3D地球を読み込み中...

Starlink 2621について

説明を読み込み中...

次回通過

Passes for default location (London). Set your location on the main map for personalized predictions.

高度履歴

Loading altitude history...

軌道要素

1 48370U 21038T 26105.47294998 .00002436 00000-0 90231-4 0 9996
2 48370 53.1601 176.8567 0000696 70.3206 289.7871 15.31703728272852
Epoch: Apr 15, 2026 • Age: 21 hours

現在のステータス

高度 471.1 km
速度 7.63 km/s
衛星直下点 5.76°N, 17.05°E
打ち上げ日 May 4, 2021
運用期間 4.9 years
タイプ internet

技術仕様

分類 Payload
質量 260.00 kg
乾燥質量 248.00 kg
総質量 260.00 kg
長さ 0.20 m
直径 2.80 m
スパン 9.00 m
形状 Box + pan
製造者 SPXS
バスタイプ Starlink
フェーズステータス In Orbit
所有者/国 SPXS/US

Most Searched